Regional Weather Roundup
Issued by NWS

Home | Current Version | Previous Version | Text Only | Print | Product List | Glossary Off
Versions: 1 2 3 4 5 6 7 8 9 10 11 12 13 14 15 16 17 18 19 20 21 22 23 24 25 26 27 28 29 30 31 32 33 34 35 36 37 38 39 40 41 42 43 44 45 46 47 48 49 50

000
ASUS43 KLMK 290110
RWRKY
KENTUCKY REGIONAL WEATHER ROUNDUP
NATIONAL WEATHER SERVICE LOUISVILLE KY
800 PM EST SUN DEC 28 2014

NOTE "FAIR" INDICATES FEW OR NO CLOUDS BELOW 12,000 FEET
WITH NO SIGNIFICANT WEATHER AND/OR OBSTRUCTIONS TO VISIBILITY.

KYZ001>023-026-027-061>063-070>075-290200-
WESTERN AND SOUTH CENTRAL KENTUCKY

CITY           SKY/WX    TMP DP  RH WIND       PRES   REMARKS
PADUCAH        CLOUDY    35  29  78 NE7       30.20S WCI  29
HENDERSON      CLOUDY    34  27  75 N5        30.22R WCI  30
OWENSBORO      CLOUDY    35  30  82 N3        30.22R
HOPKINSVILLE   CLOUDY    35  32  89 N6        30.19S WCI  30
BOWLING GREEN  CLOUDY    37  32  82 CALM      30.19F
GLASGOW        DRIZZLE   37  37 100 NE3       30.17F
$$

KYZ024-025-028>034-038-045-046-053-290200-
NORTH CENTRAL KENTUCKY

CITY           SKY/WX    TMP DP  RH WIND       PRES   REMARKS
LOUISVILLE/SDF CLOUDY    36  29  75 N5        30.20F WCI  32
LOUISVILLE/LOU CLOUDY    36  29  75 N3        30.20F
FORT KNOX      CLOUDY    34  31  87 N2        30.17F
$$

KYZ035>037-039>044-047>052-055>060-089>105-290200-
NORTHEAST KENTUCKY

CITY           SKY/WX    TMP DP  RH WIND       PRES   REMARKS
LEXINGTON      CLOUDY    34  32  92 N6        30.18R WCI  29
COVINGTON      CLOUDY    34  26  72 N6        30.17F WCI  29
FRANKFORT      CLOUDY    34  31  88 N5        30.18S WCI  30
$$

KYZ054-064>069-076>088-106>120-290200-
SOUTHEAST KENTUCKY

CITY           SKY/WX    TMP DP  RH WIND       PRES   REMARKS
JACKSON        CLOUDY    38  36  92 VRB3      30.14F FOG
LONDON         CLOUDY    41  37  86 N5        30.15S
SOMERSET       CLOUDY    37  37 100 NE6       30.18R WCI  33
MIDDLESBORO    RAIN      45  44  96 NE6       30.14R
MONTICELLO     CLOUDY    39  39 100 N3        30.18S
$$




USA.gov is the U.S. government's official web portal to all federal, state and local government web resources and services.